Location: Unspecified
(0.0000°N, 0.0000°E)
Time: 19:09:52
(UTC+00:00)

Tiros 1 despin weight - All Passes

Search period start: 18 April 2019 00:00
Search period end: 28 April 2019 00:00
Orbit: 594 x 643 km, 48.2° (Epoch: 17 April)

Date Brightness Start Highest point End Pass type
(mag) Time Alt. Az. Time Alt. Az. Time Alt. Az.
18 Apr - 08:22:28 10° N 08:26:20 30° NE 08:30:13 10° ESE daylight
18 Apr - 10:04:41 10° W 10:07:43 18° SW 10:10:45 10° S daylight
18 Apr - 20:30:06 10° SSW 20:34:41 53° SE 20:39:15 10° NE night (unlit)
18 Apr - 22:14:19 10° WNW 22:16:08 12° NW 22:17:58 10° NNW night (unlit)
19 Apr - 08:38:31 10° NW 08:42:55 89° NE 08:47:20 10° SE daylight
19 Apr - 19:08:05 10° SSE 19:09:48 12° SE 19:11:30 10° ESE visible
19 Apr - 20:46:41 10° SW 20:51:16 55° NW 20:55:51 10° NNE night (unlit)
20 Apr - 07:15:11 10° N 07:18:08 17° NE 07:21:04 10° E daylight
20 Apr - 08:55:36 10° WNW 08:59:30 31° SW 09:03:26 10° SSE daylight
20 Apr - 19:22:21 10° S 19:26:27 30° SE 19:30:34 10° ENE visible
20 Apr - 21:04:21 10° W 21:07:53 21° NW 21:11:23 10° N visible
21 Apr - 07:30:30 10° NNW 07:34:44 47° NE 07:38:59 10° SE daylight
21 Apr - 09:14:32 10° WSW 09:16:09 12° SW 09:17:47 10° SSW daylight
21 Apr - 19:38:21 10° SW 19:43:03 83° SE 19:47:44 10° NE visible
22 Apr - 07:46:59 10° NW 07:51:19 57° SW 07:55:39 10° SSE daylight
22 Apr - 18:15:03 10° S 18:18:13 18° SE 18:21:22 10° E visible
22 Apr - 19:55:21 10° WSW 19:59:38 36° NW 20:03:55 10° NNE visible
23 Apr - 06:22:50 10° N 06:26:33 26° NE 06:30:15 10° ESE daylight
23 Apr - 08:04:37 10° W 08:07:55 21° SW 08:11:15 10° S daylight
23 Apr - 18:30:21 10° SSW 18:34:50 46° SE 18:39:19 10° NE visible
23 Apr - 20:13:50 10° W 20:16:17 14° NW 20:18:44 10° NNW visible
24 Apr - 06:38:44 10° NW 06:43:09 76° NE 06:47:32 10° SE daylight
24 Apr - 18:46:47 10° SW 18:51:25 64° NW 18:56:02 10° NNE visible
25 Apr - 05:15:44 10° NNE 05:18:20 15° NE 05:20:55 10° E visible
25 Apr - 06:55:39 10° WNW 06:59:43 36° SW 07:03:47 10° SSE daylight
25 Apr - 17:22:42 10° S 17:26:36 26° SE 17:30:30 10° ENE daylight
25 Apr - 19:04:15 10° WSW 19:08:01 24° NW 19:11:47 10° N visible
26 Apr - 05:30:48 10° NNW 05:34:58 40° NE 05:39:07 10° ESE visible
26 Apr - 07:14:06 10° W 07:16:21 14° SW 07:18:36 10° SSW daylight
26 Apr - 17:38:33 10° SSW 17:43:12 71° SE 17:47:51 10° NE daylight
27 Apr - 05:47:09 10° NW 05:51:32 68° SW 05:55:55 10° SSE daylight
27 Apr - 16:15:38 10° SSE 16:18:21 15° SE 16:21:04 10° E daylight
27 Apr - 17:55:24 10° WSW 17:59:46 41° NW 18:04:11 10° NNE daylight
